Flag for Morocco Weather past 2 weeks in Marrakech, Morocco

Now
91 °F

Sunny.


Feels Like: 91 °F
Forecast: 65 / 87 °F
Wind: 17 mph from West

Location: Marrakech Airport

Current Time: May 3, 2015 at 7:06:10 PM

Latest Report: May 3, 2015 at 6:30 PM


Visibility: 10 mi

Pressure: 29.86 "Hg

Humidity: 34%

Dew point: 59 °F

Location of MarrakechLocation

Historic Weather in Marrakech — Graph

°F

Marrakech temperature yesterday

Maximum temperature yesterday: 104 °F (at 4:30 PM)
Minimum temperature yesterday: 66 °F (at 6:00 AM)
Average temperature yesterday: 85 °F

Past Weeks' High & Low Weather Summary

 TemperatureHumidityPressure
High104 °F (May 2, 4:30 PM)100% (Apr 19, 6:00 AM)30.15 "Hg (Apr 19, 6:00 AM)
Low54 °F (Apr 19, 6:00 AM)9% (May 2, 4:00 PM)29.83 "Hg (May 3, 3:30 PM)
Average71 °F57%30.03 "Hg
* Reported Apr 18 6:00 PM — May 3 6:00 PM, Marrakech, Weather by CustomWeather, © 2015

Note: Actual official high and low records may vary slightly from our data, if they occured in-between our weather recording intervals... More about our weather records

Advertising

Marrakech weather history for previous 24 hours

 ConditionsComfort  
Time TempWeatherWind HumidityBarometerVisibility
6:00 PM
Sun, May 3
95 °FSunny.21 mph32%29.83 "Hg10 mi
5:53 PM95 °FSunny.23 mph30%29.83 "Hg10 mi
5:30 PM100 °FSunny.15 mph20%29.83 "Hg10 mi
5:00 PM100 °FSunny.12 mph15%29.83 "Hg10 mi
4:30 PM102 °FPassing clouds.13 mph15%29.83 "HgN/A
4:00 PM102 °FPassing clouds.9 mph14%29.83 "HgN/A
3:30 PM100 °FPassing clouds.8 mph14%29.83 "HgN/A
3:00 PM100 °FPassing clouds.6 mph12%29.86 "HgN/A
2:30 PM100 °FSunny.3 mph14%29.86 "Hg10 mi
2:00 PM99 °FPassing clouds.3 mph14%29.86 "HgN/A
1:30 PM97 °FPassing clouds.7 mph13%29.86 "HgN/A
1:00 PM97 °FPassing clouds.6 mph18%29.89 "HgN/A
12:30 PM95 °FPassing clouds.3 mph23%29.89 "HgN/A
12:00 PM93 °FPassing clouds.3 mph23%29.89 "HgN/A
11:30 AM91 °FSunny.2 mph28%29.89 "Hg10 mi
11:00 AM88 °FPassing clouds.5 mph33%29.92 "HgN/A
10:30 AM88 °FSunny.2 mph33%29.92 "Hg10 mi
10:00 AM82 °FSunny.2 mph40%29.92 "Hg10 mi
9:30 AM79 °FPassing clouds.5 mph48%29.92 "HgN/A
9:00 AM77 °FPassing clouds.5 mph51%29.92 "HgN/A
8:30 AM75 °FSunny.No wind50%29.92 "Hg10 mi
8:00 AM75 °FSunny.5 mph50%29.92 "Hg10 mi
7:30 AM68 °FSunny.5 mph64%29.89 "Hg10 mi
7:00 AM66 °FSunny.5 mph68%29.89 "Hg10 mi
6:30 AM70 °FClear.2 mph60%29.89 "Hg10 mi
6:00 AM70 °FClear.No wind60%29.89 "Hg10 mi
5:30 AM72 °FClear.No wind57%29.89 "Hg10 mi
5:00 AM70 °FClear.No wind60%29.89 "Hg10 mi
4:30 AM70 °FClear.1 mph64%29.92 "Hg10 mi
3:30 AM70 °FClear.2 mph64%29.92 "Hg10 mi
3:00 AM72 °FClear.No wind61%29.92 "Hg10 mi
2:30 AM73 °FClear.No wind57%29.92 "Hg10 mi
2:00 AM75 °FClear.No wind54%29.95 "Hg10 mi
1:30 AM75 °FClear.No wind54%29.95 "Hg10 mi
1:00 AM77 °FClear.No wind51%29.95 "Hg10 mi
12:30 AM77 °FClear.No wind51%29.98 "Hg10 mi
12:00 AM79 °FClear.No wind48%29.98 "Hg10 mi
11:30 PM
Sat, May 2
79 °FClear.2 mph48%29.98 "Hg10 mi
11:00 PM79 °FClear.2 mph48%29.98 "Hg10 mi
10:30 PM79 °FPassing clouds.5 mph48%29.98 "HgN/A
10:00 PM79 °FClear.5 mph48%29.98 "Hg10 mi
9:30 PM81 °FClear.6 mph45%29.98 "Hg10 mi
9:00 PM84 °FClear.7 mph37%29.95 "Hg10 mi
8:30 PM90 °FPassing clouds.7 mph27%29.95 "HgN/A
8:00 PM91 °FPartly sunny.8 mph26%29.92 "HgN/A
7:30 PM93 °FPartly sunny.9 mph24%29.89 "Hg5 mi
7:00 PM95 °FPartly sunny.14 mph22%29.89 "Hg5 mi
Weather by CustomWeather, © 2015

See weather overviewHow to use our weather pages